Location: Aiyekoto
(8.4333°N, 4.3667°E)
Time: 00:07:31
(UTC+00:00)

Cosmos 2219 Rocket - Pass Details

Date: 07 June 2020
Orbit: 828 x 847 km, 71.0° (Epoch: 13 July)

Event Time Altitude Azimuth Distance (km) Brightness Sun altitude
Exits shadow 02:41:41 22° 1° (N) 1,719 4.0 -36.0°
Drops below altitude 10° 02:43:38 10° 7° (N) 2,423 5.0 -35.6°
Sets 02:46:05 0° 10° (N) 3,355 5.9 -35.1°
